[[{"header":{"parameterUnit":"m.s-1","parameterCategory":1,"la1":30.2991,"la2":30.254,"lo1":-89.0895,"lo2":-89.0444,"dy":0.0017,"dx":0.0017,"nx":28,"ny":28,"refTime":"2026-02-06T09:00:00:Z","depth":0,"parameterNumber":2,"parameterNumberName":"U-component_of_WINDS"},"data":[0,0,0,0,0,0,0,0,0,0,0,0,0,0,0,0,0,0,0,0,0,0,0,0,0,0,0,0,0,0,0,0,0,0,0,0,0,0,0,0,0,0,0,0,0,0,0,0,0,0,0,0,0,0,0,0,0,0,-0.5163,-0.5163,0,-0.517,-0.517,-0.517,-0.516,-0.516,-0.5159,-0.5159,-0.5168,-0.5169,-0.517,0,0,0,0,0,0,0,0,0,0,0,0,0,-0.5143,-0.5143,-0.5163,-0.5163,-0.5163,-0.517,-0.517,-0.517,-0.516,-0.516,-0.5159,-0.5159,-0.5168,-0.5169,-0.517,0,0,0,0,0,0,0,0,0,0,0,0,0,-0.5151,-0.5144,-0.5163,-0.5159,-0.5159,-0.517,-0.517,-0.517,-0.516,-0.516,-0.5159,-0.5159,-0.5168,-0.5169,-0.517,-0.5186,0,0,-0.5172,-0.5173,0,0,0,0,0,0,0,0,-0.5151,-0.5152,-0.516,-0.5159,-0.5159,-0.5163,-0.5166,-0.5176,-0.516,-0.516,-0.5159,-0.5158,-0.5167,-0.5168,-0.5171,-0.5187,-0.5187,-0.5172,-0.5173,-0.5173,-0.5174,0,0,0,0,0,0,0,-0.515,-0.5151,-0.5166,-0.516,-0.5159,-0.5157,-0.5158,-0.5168,-0.5167,-0.516,-0.5159,-0.516,-0.5167,-0.517,-0.5171,-0.5187,-0.5172,-0.5173,-0.5174,-0.5174,-0.5216,-0.5216,0,0,0,0,0,0,-0.515,-0.5151,-0.5166,-0.5166,-0.5153,-0.5158,-0.5159,-0.5163,-0.5166,-0.5166,-0.516,-0.5159,-0.5169,-0.517,-0.5171,-0.519,-0.5173,-0.5174,-0.5175,-0.5215,-0.5216,-0.5216,0,0,0,0,0,0,-0.5149,-0.5151,-0.5165,-0.5158,-0.516,-0.5159,-0.5164,-0.5163,-0.5166,-0.5167,-0.5167,-0.5163,-0.5168,-0.517,-0.5182,-0.5191,-0.5175,-0.5175,-0.5215,-0.5215,-0.5216,-0.5229,0,0,0,0,0,0,-0.5149,-0.5151,-0.5157,-0.5159,-0.516,-0.5176,-0.5164,-0.5164,-0.5167,-0.5166,-0.517,-0.517,-0.5168,-0.5181,-0.5183,-0.5191,-0.5176,-0.5214,-0.5215,-0.5216,-0.5228,-0.523,-0.5232,0,0,0,0,0,-0.5148,-0.5161,-0.5157,-0.5159,-0.5168,-0.5176,-0.5177,-0.5175,-0.5168,-0.5174,-0.5174,-0.517,-0.5189,-0.5182,-0.5185,-0.5193,-0.5213,-0.5215,-0.5216,-0.5227,-0.523,-0.5232,0,0,0,0,0,0,-0.5162,-0.5161,-0.5157,-0.5171,-0.5174,-0.5175,-0.5182,-0.5178,-0.5183,-0.5182,-0.5179,-0.518,-0.5192,-0.5194,-0.5186,-0.5209,-0.52,-0.5202,-0.5208,-0.521,-0.5212,-0.5212,-0.5177,0,0,0,0,0,-0.5166,-0.5172,-0.5172,-0.5184,-0.5185,-0.5184,-0.5187,-0.5184,-0.5188,-0.5189,-0.519,-0.5194,-0.5201,-0.5206,-0.5212,-0.5228,-0.5228,-0.5235,-0.5237,-0.5239,-0.5241,-0.5248,-0.5251,-0.5221,-0.5221,-0.5221,0,0,-0.5176,-0.5176,-0.5181,-0.5187,-0.5189,-0.5196,-0.5185,-0.5193,-0.5198,-0.5191,-0.5202,-0.5203,-0.5207,-0.522,-0.5226,-0.5222,-0.5249,-0.524,-0.5242,-0.5243,-0.525,-0.5253,-0.5255,-0.5222,-0.5221,-0.5221,0,0,-0.5197,-0.5198,-0.5208,-0.5209,-0.5212,-0.521,-0.5212,-0.5214,-0.5214,-0.5225,-0.5219,-0.5225,-0.5237,-0.524,-0.5243,-0.5263,-0.5259,-0.5266,-0.5277,-0.5285,-0.5287,-0.529,-0.5297,-0.53,-0.5267,-0.5267,-0.5267,0,-0.5209,-0.5219,-0.5214,-0.5222,-0.5225,-0.5216,-0.5227,-0.5229,-0.5233,-0.5236,-0.523,-0.5244,-0.5247,-0.5261,-0.5265,-0.5268,-0.5271,-0.5266,-0.5287,-0.5289,-0.5291,-0.5298,-0.5301,-0.5268,-0.5268,-0.5268,-0.5268,0,-0.5233,-0.524,-0.5248,-0.5251,-0.5255,-0.5264,-0.5261,-0.5265,-0.5262,-0.5261,-0.5272,-0.5273,-0.528,-0.5283,-0.528,-0.5296,-0.5293,-0.5288,-0.5279,-0.5295,-0.5302,-0.5304,-0.5269,-0.5269,-0.5269,-0.5269,0,0,-0.5265,-0.5264,-0.5267,-0.5268,-0.5269,-0.5275,-0.5283,-0.5288,-0.5292,-0.5295,-0.5303,-0.5312,-0.5306,-0.531,-0.5307,-0.5314,-0.533,-0.5307,-0.5307,-0.5311,-0.5347,-0.5352,-0.5355,-0.5326,-0.5327,-0.5327,-0.5347,0,-0.5286,-0.53,-0.5295,-0.5309,-0.5315,-0.5307,-0.5314,-0.5316,-0.5315,-0.5321,-0.532,-0.5326,-0.5319,-0.532,-0.5327,-0.5326,-0.5337,-0.5325,-0.5334,-0.5334,-0.5333,-0.5358,-0.5363,-0.5382,-0.5349,-0.535,-0.535,0,-0.5312,-0.5315,-0.533,-0.5329,-0.5332,-0.5338,-0.5342,-0.5347,-0.5349,-0.5348,-0.5351,-0.5346,-0.5355,-0.5345,-0.5357,-0.5349,-0.5352,-0.5352,-0.5353,-0.5354,-0.5343,-0.536,-0.5388,-0.5391,-0.5354,-0.5354,-0.5353,0,-0.5334,-0.5341,-0.5351,-0.5352,-0.5352,-0.5356,-0.5357,-0.5357,-0.5361,-0.5364,-0.5366,-0.5371,-0.5373,-0.5377,-0.5374,-0.5367,-0.5386,-0.5376,-0.5386,-0.5386,-0.5391,-0.5391,-0.5419,-0.5392,-0.5392,-0.5392,-0.5392,0,-0.5358,-0.5368,-0.536,-0.5367,-0.5377,-0.5371,-0.5381,-0.5381,-0.5381,-0.5387,-0.538,-0.5386,-0.5381,-0.5387,-0.5385,-0.5395,-0.5396,-0.5395,-0.5395,-0.5396,-0.5396,-0.5399,-0.5398,-0.5393,-0.5393,-0.5393,-0.5393,0,-0.5384,-0.538,-0.539,-0.5388,-0.5387,-0.5395,-0.5393,-0.5399,-0.5397,-0.5404,-0.5406,-0.5403,-0.5409,-0.5406,-0.5412,-0.541,-0.5423,-0.5421,-0.5423,-0.5422,-0.5432,-0.5431,-0.5463,-0.5467,-0.5437,-0.5438,-0.5438,0,-0.54,-0.5407,-0.5405,-0.5408,-0.5408,-0.5414,-0.5416,-0.541,-0.5413,-0.5415,-0.542,-0.5425,-0.5429,-0.5439,-0.5438,-0.5442,-0.544,-0.5451,-0.5441,-0.5442,-0.5441,-0.544,-0.5441,-0.5454,-0.5454,-0.5454,-0.5454,0,-0.543,-0.5427,-0.543,-0.5433,-0.5436,-0.5438,-0.5439,-0.5442,-0.5436,-0.544,-0.5445,-0.5448,-0.5454,-0.5459,-0.5463,-0.5463,-0.5458,-0.5457,-0.546,-0.5462,-0.5462,-0.5462,-0.5429,-0.5457,-0.5457,-0.5456,-0.5456,-0.5456,-0.5451,-0.5457,-0.5456,-0.546,-0.546,-0.5461,-0.5466,-0.5464,-0.5468,-0.5471,-0.5468,-0.5474,-0.5475,-0.5479,-0.548,-0.5485,-0.5481,-0.5484,-0.5485,-0.5486,-0.5488,-0.5461,-0.5486,-0.5486,-0.5486,-0.5486,-0.5485,0,-0.548,-0.5479,-0.5482,-0.5484,-0.5487,-0.548,-0.5481,-0.5484,-0.549,-0.549,-0.5493,-0.5499,-0.5504,-0.5502,-0.5506,-0.5511,-0.5508,-0.5512,-0.5512,-0.5512,-0.5491,-0.5489,-0.5514,-0.5514,-0.5514,-0.5514,-0.5514,-0.5514,-0.5495,-0.5504,-0.5501,-0.5509,-0.5508,-0.5513,-0.5514,-0.5515,-0.5516,-0.5522,-0.5525,-0.5524,-0.5523,-0.5527,-0.5531,-0.553,-0.5532,-0.5537,-0.5535,-0.5516,-0.5513,-0.5511,-0.5508,-0.5537,-0.5537,-0.5555,-0.5556,-0.5556]},{"header":{"parameterUnit":"m.s-1","parameterCategory":1,"la1":30.2991,"la2":30.254,"lo1":-89.0895,"lo2":-89.0444,"dy":0.0017,"dx":0.0017,"nx":28,"ny":28,"refTime":"2026-02-06T09:00:00:Z","depth":0,"parameterNumber":3,"parameterNumberName":"V-component_of_WINDS"},"data":[0,0,0,0,0,0,0,0,0,0,0,0,0,0,0,0,0,0,0,0,0,0,0,0,0,0,0,0,0,0,0,0,0,0,0,0,0,0,0,0,0,0,0,0,0,0,0,0,0,0,0,0,0,0,0,0,0,0,-5.4493,-5.4494,0,-5.4622,-5.4624,-5.4625,-5.4618,-5.4616,-5.4614,-5.4612,-5.4744,-5.4749,-5.4754,0,0,0,0,0,0,0,0,0,0,0,0,0,-5.424,-5.4245,-5.4493,-5.4494,-5.4496,-5.4622,-5.4624,-5.4626,-5.4618,-5.4616,-5.4613,-5.4611,-5.4742,-5.4748,-5.4755,0,0,0,0,0,0,0,0,0,0,0,0,0,-5.4358,-5.4246,-5.4492,-5.4507,-5.451,-5.4622,-5.4624,-5.4626,-5.4618,-5.4615,-5.4613,-5.461,-5.474,-5.4748,-5.4755,-5.4861,0,0,-5.478,-5.4783,0,0,0,0,0,0,0,0,-5.4351,-5.4367,-5.4503,-5.4506,-5.451,-5.4601,-5.4583,-5.4705,-5.4619,-5.4577,-5.4612,-5.4609,-5.4698,-5.471,-5.474,-5.4867,-5.4872,-5.478,-5.4785,-5.4788,-5.4791,0,0,0,0,0,0,0,-5.4343,-5.4361,-5.4544,-5.4505,-5.4509,-5.4508,-5.4522,-5.4606,-5.4652,-5.4581,-5.458,-5.4596,-5.47,-5.4732,-5.4743,-5.4874,-5.478,-5.4787,-5.4792,-5.4795,-5.5097,-5.51,0,0,0,0,0,0,-5.4331,-5.4354,-5.454,-5.4548,-5.4422,-5.4515,-5.453,-5.4574,-5.4651,-5.466,-5.4598,-5.4595,-5.472,-5.4734,-5.4748,-5.4878,-5.4788,-5.4796,-5.48,-5.5094,-5.5098,-5.5101,0,0,0,0,0,0,-5.4326,-5.4348,-5.4535,-5.4451,-5.4475,-5.4522,-5.4572,-5.4578,-5.4611,-5.4664,-5.4672,-5.4623,-5.4719,-5.4737,-5.4833,-5.4882,-5.4799,-5.4807,-5.509,-5.5095,-5.51,-5.5138,0,0,0,0,0,0,-5.4319,-5.4346,-5.4386,-5.4452,-5.4479,-5.4618,-5.4575,-5.4583,-5.4625,-5.4622,-5.469,-5.4699,-5.4718,-5.4822,-5.4841,-5.4892,-5.4813,-5.5086,-5.5092,-5.5098,-5.5133,-5.5144,-5.5153,0,0,0,0,0,-5.431,-5.4391,-5.4388,-5.441,-5.453,-5.4621,-5.4636,-5.4657,-5.4629,-5.467,-5.4705,-5.4696,-5.4874,-5.4832,-5.4854,-5.4907,-5.5083,-5.509,-5.5098,-5.5128,-5.5142,-5.5153,0,0,0,0,0,0,-5.4328,-5.44,-5.4397,-5.4502,-5.4556,-5.4619,-5.4671,-5.467,-5.4732,-5.4727,-5.475,-5.4765,-5.4863,-5.4895,-5.4846,-5.5015,-5.4975,-5.4987,-5.499,-5.5004,-5.5014,-5.5004,-5.4819,0,0,0,0,0,-5.4345,-5.4412,-5.4471,-5.4558,-5.4585,-5.4624,-5.4664,-5.4675,-5.4731,-5.4754,-5.4795,-5.485,-5.4918,-5.4962,-5.5028,-5.5137,-5.5153,-5.5185,-5.5195,-5.5203,-5.5214,-5.5277,-5.5292,-5.5126,-5.5126,-5.5125,0,0,-5.4379,-5.4426,-5.4467,-5.4563,-5.4605,-5.4675,-5.4642,-5.4717,-5.477,-5.4765,-5.4859,-5.4892,-5.4955,-5.5059,-5.5107,-5.5088,-5.5264,-5.5213,-5.5219,-5.5225,-5.5286,-5.5301,-5.5315,-5.5131,-5.513,-5.5129,0,0,-5.4478,-5.452,-5.4598,-5.4642,-5.4707,-5.4733,-5.4752,-5.4817,-5.4839,-5.4934,-5.4933,-5.4995,-5.5112,-5.5158,-5.5196,-5.5315,-5.531,-5.5335,-5.5389,-5.545,-5.5463,-5.5475,-5.5519,-5.5535,-5.5346,-5.5346,-5.5346,0,-5.4512,-5.4617,-5.4638,-5.4715,-5.4757,-5.4757,-5.4838,-5.4879,-5.4963,-5.4993,-5.4971,-5.5119,-5.5161,-5.5277,-5.5306,-5.5337,-5.536,-5.5328,-5.546,-5.5472,-5.5483,-5.5525,-5.5542,-5.5348,-5.5348,-5.5348,-5.5348,0,-5.4657,-5.473,-5.4786,-5.4868,-5.4917,-5.4995,-5.5028,-5.5076,-5.5084,-5.5112,-5.5211,-5.5261,-5.5338,-5.5367,-5.5374,-5.5485,-5.5472,-5.5454,-5.5415,-5.5501,-5.5542,-5.5558,-5.5352,-5.5351,-5.5351,-5.535,0,0,-5.477,-5.4864,-5.4885,-5.4923,-5.4996,-5.5054,-5.5132,-5.5209,-5.525,-5.5308,-5.5375,-5.5475,-5.5461,-5.5504,-5.5517,-5.5571,-5.5664,-5.5547,-5.5549,-5.5569,-5.5792,-5.5805,-5.5823,-5.5662,-5.5665,-5.5667,-5.5787,0,-5.4877,-5.5017,-5.504,-5.5162,-5.5232,-5.5234,-5.5303,-5.5356,-5.5385,-5.5448,-5.548,-5.5552,-5.5526,-5.5553,-5.5606,-5.5642,-5.571,-5.5633,-5.5726,-5.5729,-5.5711,-5.5844,-5.5858,-5.5968,-5.5803,-5.5805,-5.5807,0,-5.5021,-5.5084,-5.5215,-5.5281,-5.5311,-5.5373,-5.5446,-5.5506,-5.5567,-5.5584,-5.5635,-5.5642,-5.5725,-5.5682,-5.5797,-5.5745,-5.5784,-5.5808,-5.5813,-5.5823,-5.5774,-5.5859,-5.6003,-5.602,-5.5832,-5.583,-5.5828,0,-5.5092,-5.521,-5.5304,-5.5337,-5.5416,-5.546,-5.5495,-5.5553,-5.5598,-5.5662,-5.5692,-5.5765,-5.5805,-5.5861,-5.5888,-5.5854,-5.6003,-5.5961,-5.6021,-5.602,-5.6052,-5.605,-5.6206,-5.6076,-5.6076,-5.6075,-5.6075,0,-5.521,-5.529,-5.5338,-5.5395,-5.5486,-5.5511,-5.56,-5.5634,-5.5687,-5.5752,-5.5758,-5.5819,-5.5851,-5.5918,-5.5939,-5.6033,-5.605,-5.6068,-5.6073,-5.6068,-5.6066,-5.6095,-5.6088,-5.608,-5.6079,-5.6078,-5.6077,0,-5.5305,-5.534,-5.5443,-5.5511,-5.553,-5.5593,-5.5652,-5.5709,-5.5738,-5.5821,-5.5842,-5.5889,-5.5967,-5.6,-5.6096,-5.6111,-5.6219,-5.6218,-5.6199,-5.6201,-5.6259,-5.6254,-5.644,-5.6467,-5.6317,-5.6318,-5.632,0,-5.5379,-5.5441,-5.5516,-5.556,-5.5597,-5.5669,-5.5716,-5.5744,-5.5792,-5.5868,-5.5917,-5.5995,-5.606,-5.6186,-5.6228,-5.6303,-5.6304,-5.6364,-5.6315,-5.6309,-5.6307,-5.6303,-5.6311,-5.6373,-5.6375,-5.6376,-5.6377,0,-5.5506,-5.5521,-5.5588,-5.5663,-5.5719,-5.5779,-5.5837,-5.5873,-5.5911,-5.5966,-5.6047,-5.6097,-5.6197,-5.6275,-5.6353,-5.6389,-5.6391,-5.6392,-5.641,-5.6406,-5.6394,-5.6403,-5.6225,-5.6388,-5.6387,-5.6386,-5.6385,-5.6385,-5.5594,-5.565,-5.5712,-5.5788,-5.5835,-5.5891,-5.5948,-5.5986,-5.6054,-5.6138,-5.6151,-5.6238,-5.63,-5.6404,-5.6444,-5.6513,-5.6498,-5.6523,-5.653,-5.6536,-5.6541,-5.6382,-5.6527,-5.6527,-5.6526,-5.6526,-5.6526,0,-5.5723,-5.5764,-5.5833,-5.5916,-5.5976,-5.5972,-5.6037,-5.6088,-5.6165,-5.6223,-5.6287,-5.6382,-5.6459,-5.6508,-5.6587,-5.6633,-5.6635,-5.6652,-5.665,-5.6659,-5.6549,-5.6527,-5.6649,-5.6649,-5.6649,-5.6649,-5.6649,-5.6649,-5.5797,-5.5893,-5.5915,-5.6035,-5.6076,-5.6162,-5.62,-5.6251,-5.6298,-5.6404,-5.6468,-5.65,-5.6556,-5.6639,-5.671,-5.6723,-5.6752,-5.677,-5.6782,-5.6679,-5.6666,-5.6654,-5.6633,-5.6776,-5.6776,-5.6886,-5.6887,-5.6888]}]]